EHI
0 0 0 0 0 0 0 0 0 0 0 0 0 0 0 0 0 0 0 0 0 0 0 0 0 0 0 0 0 0 0 0 0 0 0 0 0 0 0 0 0 0 0 0
0 0 0 0 0 0 0 0 0 0 0 0 0 0 0 0 0 0 0 0 0 0 0 0 0 0 0 0 0 0 0 0 0 0 0 0 0 0 0 0 0 0 0 0
0 0 0 0 0 0 0 0 0 0 0 0 0 0 0 0 0 0 0 0 0 0 0 0 0 0 0 0 0 0 0 0 0 0 0 0 0 0 0 0 0 0 0 0
0 0 0 0 0 0 0 0 0 0 0 0 0 0 0 0 0 0 0 0 0 0 0 0 0 0 0 0 0 0 0 0 0 0 0 0 0 0 0 0 0 0 0 0
0 0 0 0 0 0 0 0 0 0 0 0 0 0 0 0 0 0 0 0 0 0 0 0 0 0 0 0 0 0 0 0 0 0 0 0 0 0 0 0 0 0 0 0
0 0 0 0 0 0 0 0 0 0 0 0 0 0 0 0 0 0 0 0 0 0 0 0 0 0 0 0 0 0 0 0 0 0 0 0 0 0 0 0 0 0 0 0
0 0 0 0 0 0 0 0 0 0 0 0 0 0 0 0 0 0 0 0 0 0 0 0 0 0 0 0 0 0 0 0 0 0 0 0 0 0 0 0 0 0 0 0
0 0 0 0 0 0 0 0 0 0 0 0 0 0 0 0 0 0 0 0 0 0 0 0 0 0 0 0 0 0 0 0 0 0 0 0 0 0 0 0 0 0 0 0
0 0 0 0 0 0 0 0 0 0 0 0 0 0 0 0 0 0 0 0 0 0 0 0 0 0 0 0 0 0 0 0 0 0 0 0 0 0 0 0 0 0 0 0
0 0 0 0 0 0 0 0 0 0 0 0 0 0 0 0 0 0 0 0 0 0 0 0 0 0 0 0 0 0 0 0 0 0 0 0 0 0 0 0 0 0 0 0
0 0 0 0 0 0 0 0 0 0 0 0 0 0 0 0 0 0 0 0 0 0 0 0 0 0 0 0 0 0 0 0 0 0 0 0 0 0 0 0 0 0 0 0
0 0 0 0 0 0 0 0 0 0 0 0 0 0 0 0 0 0 0 0 0 0 0 0 0 0 0 0 0 0 0 0 0 0 0 0 0 0 0 0 0 0 0 0
0 0 0 0 0 0 0 0 0 0 0 0 0 0 0 0 0 0 0 0 0 0 0 0 0 0 0 0 0 0 0 0 0 0 0 0 0 0 0 0 0 0 0 0
0 0 0 0 0 0 0 0 0 0 0 0 0 0 0 0 0 0 0 0 0 0 0 0 0 0 0 0 0 0 0 0 0 0 0 0 0 0 0 0 0 0 0 0
0 0 0 0 0 0 0 0 0 0 0 0 0 0 0 0 0 0 0 0 0 0 0 0 0 0 0 0 0 0 0 0 0 0 0 0 0 0 0 0 0 0 0 0
0 0 0 0 0 0 0 0 0 0 0 0 0 0 0 0 0 0 0 0 0 0 0 0 0 0 0 0 0 0 0 0 0 0 0 0 0 0 0 0 0 0 0 0
0 0 0 0 0 0 0 0 0 0 0 0 0 0 0 0 0 0 0 0 0 0 0 0 0 0 0 0 0 0 0 0 0 0 0 0 0 0 0 0 0 0 0 0
0 0 0 0 0 0 0 0 0 0 0 0 0 0 0 0 0 0 0 0 0 0 0 0 0 0 0 0 0 0 0 0 0 0 0 0 0 0 0 0 0 0 0 0
0 0 0 0 0 0 0 0 0 0 0 0 0 0 0 0 0 0 0 0 0 0 0 0 0 0 0 0 0 0 0 0 0 0 0 0 0 0 0 0 0 0 0 0
0 0 0 0 0 0 0 0 0 0 0 0 0 0 0 0 0 0 0 0 0 0 0 0 0 0 0 0 0 0 0 0 0 0 0 0 0 0 0 0 0 0 0 0
0 0 0 0 0 0 0 0 0 0 0 0 0 0 0 0 0 0 0 0 0 0 0 0 0 0 0 0 0 0 0 0 0 0 0 0 0 0 0 0 0 0 0 0
0 0 0 0 0 0 0 0 0 0 0 0 0 0 0 0 0 0 0 0 0 0 0 0 0 0 0 0 0 0 0 0 0 0 0 0 0 0 0 0 0 0 0 0
0 0 0 0 0 0 0 0 0 0 0 0 0 0 0 0 0 0 0 0 0 0 0 0 0 0 0 0 0 0 0 0 0 0 0 0 0 0 0 0 0 0 0 0
0 0 0 0 0 0 0 0 0 0 0 0 0 0 0 0 0 0 0 0 0 0 0 0 0 0 0 0 0 0 0 0 0 0 0 0 0 0 0 0 0 0 0 0
0 0 0 0 0 0 0 0 0 0 0 0 0 0 0 0 0 0 0 0 0 0 0 0 0 0 0 0 0 0 0 0 0 0 0 0 0 0 0 0 0 0 0 0
0 0 0 0 0 0 0 0 0 0 0 0 0 0 0 0 0 0 0 0 0 0 0 0 0 0 0 0 0 0 0 0 0 0 0 0 0 0 0 0 0 0 0 0
0 0 0 0 0 0 0 0 0 0 0 0 0 0 0 0 0 0 0 0 0 0 0 0 0 0 0 0 0 0 0 0 0 0 0 0 0 0 0 0 0 0 0 0
Wind_Speed
5 5 4 5 6 5 6 6 6 6 5 6 5 4 4 3 2 2 3 2 2 2 2 2 1 0 1 1 2 2 4 4 4 4 5 5 5 5 5 5 5 5 5 4
4 3 3 4 6 5 6 5 5 5 6 4 3 2 3 3 3 3 3 3 3 3 2 2 1 1 0 1 2 3 4 4 4 4 5 5 5 5 5 5 5 5 5 4
3 3 2 2 4 3 1 2 2 5 5 4 3 4 4 4 4 4 4 4 4 3 3 3 2 1 1 2 2 3 4 4 4 5 5 5 5 5 5 5 5 5 4 4
2 2 1 2 2 3 1 2 3 3 5 5 4 5 4 3 4 5 5 5 4 3 3 2 2 1 1 2 2 3 4 4 4 5 5 4 5 5 5 5 5 5 4 4
0 0 2 4 5 6 4 4 5 5 7 7 7 5 4 4 4 5 5 5 4 3 2 2 1 1 2 2 2 3 3 3 4 5 5 5 5 4 4 5 5 4 4 4
0 0 1 4 9 10 2 3 7 8 9 8 7 5 6 7 8 7 6 5 3 2 1 1 1 1 3 2 3 3 3 3 4 5 5 5 5 4 3 4 4 4 3 3
0 1 2 6 11 7 3 5 10 9 8 7 5 5 8 9 8 6 5 4 3 1 0 1 0 2 3 2 2 1 2 3 3 4 4 4 4 3 4 4 4 3 3 2
1 1 4 8 7 5 4 7 8 8 8 7 6 7 7 7 8 7 5 4 3 1 1 1 1 2 3 2 1 2 3 3 3 3 3 3 4 3 4 4 4 3 3 2
1 2 4 5 4 5 6 7 8 8 9 8 7 7 8 7 7 6 5 5 3 2 2 2 2 2 2 1 2 3 3 3 3 3 3 3 3 4 3 4 4 3 3 3
1 3 5 6 6 7 7 8 8 8 9 8 7 7 7 7 7 6 5 5 3 3 3 3 3 2 2 1 2 3 3 3 3 3 2 2 2 2 3 4 4 4 4 3
2 4 6 6 8 9 10 10 9 9 8 8 7 7 6 6 6 5 5 5 4 3 3 3 2 2 2 2 3 3 3 2 2 2 2 2 1 1 1 2 4 5 4 4
3 5 5 8 9 10 10 10 10 10 10 9 8 7 7 6 5 5 5 4 4 4 4 3 3 3 2 1 3 3 2 2 2 2 2 2 2 1 1 1 2 3 4 4
4 6 6 8 9 9 8 9 10 9 9 9 8 6 6 5 5 5 5 5 5 4 4 3 3 3 3 2 2 2 2 2 2 2 2 2 2 2 1 1 2 2 2 2
6 6 5 7 8 9 9 9 8 8 8 7 7 6 6 5 5 6 5 5 4 4 4 4 4 4 3 3 3 2 2 1 1 1 1 1 1 1 1 1 1 1 0 1
8 7 6 7 8 9 9 9 9 9 9 9 7 7 7 7 7 7 6 5 5 5 5 4 4 4 4 3 3 2 1 1 1 1 1 1 1 1 1 1 1 0 1 0
9 8 7 8 9 10 10 9 9 9 9 8 8 8 7 6 6 6 6 6 5 5 5 5 4 4 4 4 3 2 2 2 1 0 0 0 1 1 1 1 1 1 0 0
8 8 9 9 10 9 9 8 7 7 7 7 8 7 7 7 7 7 7 7 5 5 5 4 4 4 4 3 2 1 1 1 1 1 0 0 0 1 1 1 1 1 1 1
5 5 6 6 6 8 8 8 8 8 7 7 7 7 7 7 7 7 7 6 6 6 6 5 5 4 4 3 2 2 1 1 1 0 0 0 1 1 1 1 1 1 1 1
6 7 7 7 6 6 6 7 7 7 7 7 7 7 6 6 6 6 6 6 6 6 6 6 8 6 5 5 4 2 1 1 1 1 0 0 0 0 0 0 1 1 1 1
7 8 7 7 7 6 6 6 7 7 7 6 6 6 6 6 6 6 6 5 5 4 5 6 6 4 4 4 4 2 1 1 1 1 1 0 0 0 1 1 1 1 1 1
8 8 8 8 8 7 7 7 6 6 7 6 6 6 6 6 6 5 4 5 5 6 6 7 5 4 4 4 4 2 1 1 1 1 1 1 1 1 1 1 1 2 2 1
7 7 7 7 7 7 7 6 6 6 6 6 6 6 6 6 6 5 4 3 5 8 6 4 4 5 6 6 3 2 2 2 1 1 1 1 1 2 2 2 2 2 2 2
6 6 7 7 7 7 7 6 6 6 6 6 7 6 6 5 4 4 5 4 5 8 6 4 6 9 9 5 3 2 2 2 2 1 1 1 2 2 2 2 2 2 2 2
6 6 6 6 6 6 7 7 6 6 5 6 6 6 5 5 4 3 3 7 9 9 5 7 10 10 8 3 3 3 2 2 2 2 2 2 2 2 2 3 3 3 3 3
6 5 5 6 6 5 6 7 7 6 6 5 6 6 5 4 4 5 5 6 8 8 5 7 10 9 5 3 3 3 3 3 3 2 2 2 2 2 3 3 3 3 3 3
5 5 4 4 4 5 5 5 5 5 6 6 6 5 5 4 4 4 4 5 6 8 6 4 5 6 4 4 3 3 3 4 4 3 3 3 3 3 3 3 4 3 3 3
5 4 4 4 4 4 4 5 5 6 6 6 7 6 6 6 5 5 5 5 5 5 4 4 4 4 3 3 3 3 3 3 3 3 3 3 3 3 3 4 3 3 3 3
Wind_Direction
267 278 273 277 273 245 218 212 216 239 247 277 296 295 297 304 328 345 341 336 325 323 320 326 348 84 137 148 145 146 150 155 169 166 159 155 152 153 149 146 145 141 135 135
282 265 275 287 296 269 248 234 233 247 267 292 304 322 326 319 320 318 309 302 301 306 309 307 299 283 160 164 157 145 153 163 163 153 148 150 150 148 143 140 136 133 137 140
277 303 1 323 313 275 245 306 251 246 270 323 332 328 317 312 309 297 296 292 292 285 276 271 266 247 211 188 155 147 157 160 154 149 149 153 150 144 145 144 137 136 143 145
290 19 220 255 342 349 327 342 339 317 319 327 307 301 301 301 295 303 309 300 292 283 284 285 270 243 191 153 147 151 157 159 155 151 149 147 146 150 150 145 145 146 146 148
278 216 281 326 358 346 316 323 348 329 328 334 328 328 325 349 336 315 309 305 294 283 279 283 257 193 148 139 140 140 153 161 161 155 150 150 153 157 153 145 143 146 148 150
123 169 253 333 326 320 304 320 353 342 329 328 338 329 311 338 332 322 316 312 305 299 312 294 286 144 134 140 141 155 162 158 153 152 152 157 161 157 149 141 142 141 139 148
209 254 292 330 326 346 40 313 326 327 325 331 321 293 302 317 322 320 316 317 323 332 311 287 273 115 118 122 146 162 135 128 128 138 147 152 149 146 141 136 132 138 139 145
45 22 298 340 357 17 315 310 326 332 333 331 325 322 324 328 330 332 335 337 347 16 7 17 72 110 106 111 121 109 107 109 115 121 132 139 139 141 143 143 142 150 148 155
181 235 294 337 347 327 325 328 335 336 332 331 330 332 336 338 339 341 349 351 2 35 31 24 39 94 110 101 104 104 100 106 114 116 124 139 146 153 156 159 161 171 171 178
332 313 331 344 351 348 345 338 335 334 333 336 334 334 338 341 345 351 356 359 10 39 47 30 27 50 85 93 97 102 106 109 117 120 122 126 140 159 169 175 174 179 184 187
320 316 331 345 349 344 342 344 345 344 344 343 343 344 345 346 348 352 357 358 9 29 41 30 35 46 52 89 102 101 100 104 116 120 129 124 124 154 180 204 195 190 193 188
308 317 315 312 328 341 345 346 345 345 346 349 353 348 350 350 352 356 1 6 14 23 29 25 32 33 23 55 106 116 113 113 116 119 121 123 116 65 22 173 190 198 203 202
303 315 310 308 328 341 343 344 345 347 344 343 350 352 354 356 358 3 6 9 12 13 19 22 27 23 15 29 82 107 125 132 127 125 127 135 138 136 124 45 72 107 140 184
336 340 337 338 335 341 344 343 348 352 353 353 354 358 3 5 6 7 4 3 7 16 20 22 30 19 7 25 57 69 82 93 113 129 138 148 154 163 167 156 106 13 45 106
349 347 324 325 340 348 349 353 359 358 356 358 2 7 9 9 6 1 359 1 11 19 17 21 26 11 6 30 47 54 65 77 95 114 132 144 145 145 146 151 160 251 16 360
331 341 346 350 350 350 352 356 357 353 353 356 2 3 4 4 3 3 4 8 17 10 3 11 9 1 11 27 37 40 43 45 40 73 89 101 127 134 151 168 168 176 204 279
346 346 345 345 345 346 348 349 347 347 350 354 353 356 2 6 9 10 8 8 12 5 357 0 356 355 6 17 24 22 28 30 20 35 80 152 164 179 183 182 187 201 225 239
334 326 326 324 328 335 340 345 348 349 348 344 347 357 4 6 3 358 356 359 7 9 3 360 359 360 4 6 11 13 18 9 13 39 71 189 181 176 175 189 199 213 235 238
346 344 342 343 339 336 337 341 343 343 342 344 350 354 356 357 355 353 355 2 4 360 352 356 358 3 0 355 353 0 8 7 7 3 21 42 49 85 161 214 237 237 233 227
345 345 346 346 347 345 339 338 340 342 342 343 347 353 355 353 352 354 0 359 349 335 331 341 349 353 350 346 346 353 356 348 354 10 14 20 331 286 272 263 256 253 253 245
338 340 342 343 341 340 338 337 341 341 341 343 346 346 343 342 344 347 355 349 341 341 342 346 350 345 342 340 341 344 340 338 342 331 317 313 299 286 283 280 276 275 267 264
331 333 335 336 337 335 335 338 341 340 341 343 342 342 343 341 343 344 341 327 327 336 342 341 341 340 341 339 340 342 336 332 326 311 291 283 284 277 272 272 271 272 268 265
326 329 330 331 330 325 329 337 339 339 338 337 336 337 335 330 330 330 328 330 332 333 336 331 332 335 338 341 339 336 329 325 317 304 291 279 276 275 272 270 271 272 269 268
327 327 326 326 327 331 333 333 334 333 330 325 328 329 329 327 326 322 309 318 327 329 329 326 332 334 337 338 331 326 321 316 308 296 288 281 273 270 271 271 273 273 270 268
323 322 326 331 333 329 325 327 329 330 330 329 330 331 329 321 311 314 317 318 323 328 327 327 331 334 338 331 328 321 314 307 299 292 279 276 273 271 270 269 267 269 271 269
319 317 314 312 311 314 320 324 325 326 327 325 325 327 326 323 317 314 315 316 317 322 324 320 322 326 325 321 319 318 315 312 313 306 293 286 280 276 274 273 271 268 267 266
320 319 320 322 325 326 324 321 319 320 320 318 316 319 322 322 321 320 317 316 318 318 315 314 315 316 315 315 315 314 313 311 306 300 294 286 280 276 276 273 272 271 269 266